User: anonymous   Login
Location: Unspecified
(0.0000°N, 0.0000°E)
Time: 13:25:38
(UTC+00:00)
Language:

ETS 8 - Orbit

View from above orbital plane
View from above orbital plane
View from above satellite
View from above satellite

Ground track
Ground track

The orbit data is extracted from the following two-line orbital elements,

1 29656U 06059A   16150.07927375 -.00000245  00000-0  00000+0 0  9992
2 29656   4.8679  61.4747 0006588   6.1714 353.6237  1.00269988 34637
Epoch (UTC): 29 May 2016 01:54:09
Eccentricity: 0.0006588
inclination: 4.8679°
perigee height: 35759 km
apogee height: 35814 km
right ascension of ascending node: 61.4747°
argument of perigee: 6.1714°
revolutions per day: 1.00269988
mean anomaly at epoch: 353.6237°
orbit number at epoch: 3463

The dashed part of the orbit path shows where the satellite is in the earth's shadow,  

DLR